When you browse on this site, cookies collect data to enhance your experience and personalize the content and advertising you see.
Visit our Privacy Policy to learn more. By continuing to use the site, you agree to this use of cookies and data.
  • In Denmark
  • List of Countries
  • For 7 days
  • Water Temperature
  • Satellite Maps
  • Weather Map
  • Weather Widgets
  • user-avatar
    Login

    Hourly Weather San Carlos

    Today, 17 December, Monday

    Time Temperature Precipitation Wind Pressure Humidity
    00:00 +24°C° 0 mm 1 mps 746 mmHg 80%
    01:00 +23°C° 0 mm 1 mps 746 mmHg 82%
    02:00 +23°C° 0 mm 1 mps 746 mmHg 82%
    03:00 +23°C° 0 mm 1 mps 746 mmHg 82%
    04:00 +23°C° 0 mm 1 mps 746 mmHg 82%
    05:00 +22°C° 0 mm 0 mps 746 mmHg 79%
    06:00 +22°C° 0 mm 0 mps 747 mmHg 76%
    07:00 +23°C° 0 mm 0 mps 747 mmHg 73%
    08:00 +27°C° 0 mm 1 mps 748 mmHg 66%
    09:00 +29°C° 0 mm 2 mps 748 mmHg 59%
    10:00 +33°C° 0 mm 3 mps 748 mmHg 52%
    11:00 +33°C° 0 mm 3 mps 747 mmHg 49%
    12:00 +34°C° 0 mm 2 mps 746 mmHg 47%
    13:00 +35°C° 0 mm 2 mps 745 mmHg 45%
    14:00 +35°C° 0 mm 2 mps 745 mmHg 46%
    15:00 +34°C° 0 mm 2 mps 744 mmHg 47%
    16:00 +33°C° 0 mm 1 mps 744 mmHg 48%
    17:00 +31°C° 0 mm 1 mps 744 mmHg 55%
    18:00 +29°C° 0 mm 1 mps 744 mmHg 63%
    19:00 +27°C° 0 mm 1 mps 745 mmHg 70%
    20:00 +27°C° 0 mm 1 mps 745 mmHg 72%
    21:00 +26°C° 0 mm 1 mps 745 mmHg 74%
    22:00 +26°C° 0 mm 1 mps 746 mmHg 76%
    23:00 +25°C° 0 mm 1 mps 746 mmHg 78%

    Tomorrow, 18 December, Tuesday

    Time Temperature Precipitation Wind Pressure Humidity
    00:00 +25°C° 0 mm 1 mps 746 mmHg 80%
    01:00 +25°C° 0 mm 1 mps 746 mmHg 82%
    02:00 +24°C° 0 mm 1 mps 745 mmHg 83%
    03:00 +24°C° 0 mm 1 mps 745 mmHg 84%
    04:00 +24°C° 0 mm 1 mps 745 mmHg 85%
    05:00 +24°C° 0 mm 1 mps 746 mmHg 82%
    06:00 +23°C° 0 mm 0 mps 746 mmHg 80%
    07:00 +24°C° 0 mm 0 mps 747 mmHg 77%
    08:00 +28°C° 0 mm 1 mps 747 mmHg 68%
    09:00 +30°C° 0 mm 2 mps 747 mmHg 59%
    10:00 +32°C° 0 mm 2 mps 747 mmHg 50%
    11:00 +34°C° 0 mm 2 mps 746 mmHg 47%
    12:00 +35°C° 0 mm 2 mps 745 mmHg 44%
    13:00 +36°C° 0 mm 2 mps 744 mmHg 41%
    14:00 +36°C° 0 mm 2 mps 744 mmHg 43%
    15:00 +34°C° 0 mm 1 mps 744 mmHg 44%
    16:00 +34°C° 0 mm 1 mps 743 mmHg 46%
    17:00 +32°C° 0 mm 1 mps 743 mmHg 54%
    18:00 +30°C° 0 mm 1 mps 744 mmHg 62%
    19:00 +27°C° 0 mm 1 mps 744 mmHg 69%
    20:00 +27°C° 0 mm 1 mps 745 mmHg 73%
    21:00 +26°C° 0 mm 1 mps 745 mmHg 76%
    22:00 +26°C° 0 mm 1 mps 746 mmHg 80%
    23:00 +25°C° 0 mm 1 mps 746 mmHg 82%

    Day after tomorrow, 19 December, Wednesday

    Time Temperature Precipitation Wind Pressure Humidity
    00:00 +25°C° 0 mm 1 mps 745 mmHg 84%
    01:00 +25°C° 0 mm 1 mps 745 mmHg 86%
    02:00 +25°C° 0 mm 1 mps 745 mmHg 87%
    03:00 +24°C° 0 mm 1 mps 745 mmHg 88%
    04:00 +24°C° 0 mm 1 mps 745 mmHg 89%
    05:00 +25°C° 0 mm 1 mps 746 mmHg 86%
    06:00 +23°C° 0 mm 0 mps 746 mmHg 82%
    07:00 +24°C° 0 mm 0 mps 747 mmHg 79%
    08:00 +28°C° 0 mm 1 mps 747 mmHg 70%
    09:00 +30°C° 0 mm 2 mps 747 mmHg 60%
    10:00 +34°C° 0 mm 2 mps 747 mmHg 50%
    11:00 +34°C° 0 mm 2 mps 746 mmHg 48%
    12:00 +35°C° 0 mm 2 mps 745 mmHg 46%
    13:00 +36°C° 0 mm 2 mps 744 mmHg 44%
    14:00 +35°C° 0 mm 2 mps 743 mmHg 45%
    15:00 +35°C° 0 mm 2 mps 743 mmHg 47%
    16:00 +34°C° 0 mm 1 mps 742 mmHg 48%
    17:00 +32°C° 0 mm 1 mps 743 mmHg 55%
    18:00 +30°C° 0 mm 1 mps 743 mmHg 63%
    19:00 +28°C° 0 mm 1 mps 744 mmHg 70%
    20:00 +28°C° 0 mm 1 mps 744 mmHg 72%
    21:00 +27°C° 0 mm 1 mps 745 mmHg 75%
    22:00 +27°C° 0 mm 1 mps 745 mmHg 78%
    23:00 +26°C° 0 mm 1 mps 745 mmHg 80%

    20 December, Thursday

    Time Temperature Precipitation Wind Pressure Humidity
    00:00 +26°C° 0 mm 1 mps 745 mmHg 82%
    01:00 +25°C° 0 mm 1 mps 744 mmHg 84%
    02:00 +25°C° 0 mm 1 mps 744 mmHg 84%
    03:00 +25°C° 0 mm 1 mps 744 mmHg 85%
    04:00 +25°C° 0 mm 1 mps 744 mmHg 85%
    05:00 +25°C° 0 mm 1 mps 745 mmHg 82%
    06:00 +26°C° 0 mm 1 mps 746 mmHg 78%
    07:00 +26°C° 0 mm 1 mps 746 mmHg 75%
    08:00 +29°C° 0 mm 2 mps 746 mmHg 67%
    09:00 +31°C° 0 mm 2 mps 747 mmHg 59%
    10:00 +34°C° 0 mm 3 mps 747 mmHg 51%
    11:00 +34°C° 0 mm 3 mps 746 mmHg 50%
    12:00 +35°C° 0 mm 3 mps 745 mmHg 49%
    13:00 +35°C° 0 mm 3 mps 744 mmHg 47%
    14:00 +35°C° 0 mm 2 mps 743 mmHg 50%
    15:00 +34°C° 0 mm 2 mps 743 mmHg 52%
    16:00 +32°C° 0 mm 2 mps 742 mmHg 55%
    17:00 +31°C° 0 mm 1 mps 743 mmHg 61%
    18:00 +29°C° 0 mm 1 mps 744 mmHg 68%
    19:00 +27°C° 0 mm 1 mps 744 mmHg 75%
    20:00 +27°C° 0 mm 1 mps 744 mmHg 77%
    21:00 +27°C° 0 mm 1 mps 745 mmHg 79%
    22:00 +26°C° 0 mm 1 mps 745 mmHg 80%
    23:00 +26°C° 0 mm 1 mps 745 mmHg 82%

    21 December, Friday

    Time Temperature Precipitation Wind Pressure Humidity
    00:00 +25°C° 0 mm 1 mps 744 mmHg 83%
    01:00 +25°C° 0 mm 1 mps 744 mmHg 84%
    02:00 +25°C° 0 mm 1 mps 744 mmHg 85%
    03:00 +25°C° 0 mm 1 mps 744 mmHg 85%
    04:00 +22°C° 0 mm 0 mps 744 mmHg 85%
    05:00 +25°C° 0 mm 1 mps 745 mmHg 82%
    06:00 +26°C° 0 mm 1 mps 745 mmHg 79%
    07:00 +26°C° 0 mm 1 mps 746 mmHg 76%
    08:00 +28°C° 0 mm 1 mps 746 mmHg 67%
    09:00 +30°C° 0 mm 2 mps 746 mmHg 58%
    10:00 +33°C° 0 mm 3 mps 746 mmHg 49%
    11:00 +34°C° 0 mm 3 mps 745 mmHg 46%
    12:00 +36°C° 0 mm 3 mps 744 mmHg 42%
    13:00 +37°C° 0 mm 3 mps 744 mmHg 38%
    14:00 +36°C° 0 mm 2 mps 743 mmHg 39%
    15:00 +36°C° 0 mm 2 mps 743 mmHg 39%
    16:00 +36°C° 0 mm 2 mps 742 mmHg 40%
    17:00 +32°C° 0 mm 2 mps 743 mmHg 48%
    18:00 +30°C° 0 mm 1 mps 743 mmHg 56%
    19:00 +28°C° 0 mm 1 mps 744 mmHg 64%
    20:00 +27°C° 0 mm 1 mps 744 mmHg 68%
    21:00 +27°C° 0 mm 1 mps 745 mmHg 72%
    22:00 +26°C° 0 mm 2 mps 745 mmHg 76%
    23:00 +26°C° 0 mm 2 mps 745 mmHg 79%

    22 December, Saturday

    Time Temperature Precipitation Wind Pressure Humidity
    00:00 +25°C° 0 mm 1 mps 745 mmHg 81%
    01:00 +25°C° 0 mm 1 mps 744 mmHg 84%
    02:00 +25°C° 0 mm 1 mps 744 mmHg 85%
    03:00 +24°C° 0 mm 1 mps 744 mmHg 86%
    04:00 +24°C° 0 mm 1 mps 744 mmHg 87%
    05:00 +25°C° 0 mm 1 mps 745 mmHg 85%
    06:00 +25°C° 0 mm 1 mps 746 mmHg 82%
    07:00 +26°C° 0 mm 1 mps 746 mmHg 79%
    08:00 +28°C° 0 mm 1 mps 746 mmHg 69%
    09:00 +31°C° 0 mm 2 mps 747 mmHg 59%
    10:00 +34°C° 0 mm 2 mps 747 mmHg 48%
    11:00 +34°C° 0 mm 2 mps 746 mmHg 47%
    12:00 +35°C° 0 mm 2 mps 745 mmHg 45%
    13:00 +35°C° 0 mm 2 mps 744 mmHg 43%
    14:00 +35°C° 0 mm 2 mps 744 mmHg 45%
    15:00 +34°C° 0 mm 2 mps 743 mmHg 47%
    16:00 +34°C° 0 mm 2 mps 743 mmHg 49%
    17:00 +31°C° 0 mm 2 mps 743 mmHg 56%
    18:00 +29°C° 0 mm 1 mps 744 mmHg 64%
    19:00 +27°C° 0 mm 1 mps 744 mmHg 71%
    20:00 +27°C° 0 mm 1 mps 745 mmHg 74%
    21:00 +26°C° 0 mm 1 mps 745 mmHg 77%
    22:00 +26°C° 0 mm 2 mps 745 mmHg 80%
    23:00 +26°C° 0 mm 2 mps 745 mmHg 82%
    Show more